FW3090 Weather Reports


Display with metric or nautical units.
time (UTC)temp
F
wind
direction
speed
MPH
gust
MPH
rain 1hr
in
rain 24hr
in
rain mn
in
humidity
%
barometer
mb
20260831232906 87 232 2.0 4.0 0.00 0.00 0.00 74 1010.8
20260831232144 87 245 2.0 3.0 0.00 0.00 0.00 74 1010.8
20260831231643 87 259 1.0 4.0 0.00 0.00 0.00 76 1011.0
20260831231143 87 286 0.0 4.0 0.00 0.00 0.00 75 1010.9
20260831230643 87 236 0.0 0.0 0.00 0.00 0.00 75 1010.7
20260831230143 87 237 0.0 0.0 0.00 0.00 0.00 75 1010.7
20260831225642 87 219 0.0 0.0 0.00 0.00 0.00 75 1010.7
20260831225137 87 214 0.0 0.0 0.00 0.00 0.00 76 1010.8
20260831224630 87 240 0.0 0.0 0.00 0.00 0.00 76 1010.6
20260831224126 87 347 0.0 0.0 0.00 0.00 0.00 76 1010.7
20260831223619 87 310 0.0 0.0 0.00 0.00 0.00 76 1010.6
20260831223556 87 252 0.0 0.0 0.00 0.00 0.00 75 1010.6
20260831222608 87 261 0.0 0.0 0.00 0.00 0.00 76 1010.5
20260831222102 87 223 0.0 0.0 0.00 0.00 0.00 76 1010.5
20260831221554 87 223 0.0 0.0 0.00 0.00 0.00 75 1010.5
20260831221315 87 225 0.0 0.0 0.00 0.00 0.00 76 1010.5
20260831220543 86 225 0.0 0.0 0.00 0.00 0.00 77 1010.4
20260831220301 86 220 0.0 0.0 0.00 0.00 0.00 77 1010.5
20260831215757 86 219 0.0 0.0 0.00 0.00 0.00 77 1010.4
20260831215025 86 101 0.0 0.0 0.00 0.00 0.00 78 1010.4
20260831214519 86 101 0.0 0.0 0.00 0.00 0.00 79 1010.4
20260831214012 86 101 0.0 0.0 0.00 0.00 0.00 78 1010.4
20260831213507 86 101 0.0 0.0 0.00 0.00 0.00 77 1010.4
20260831213450 86 101 0.0 0.0 0.00 0.00 0.00 78 1010.0
20260831212716 86 101 0.0 0.0 0.00 0.00 0.00 78 1010.3
20260831211948 86 186 0.0 0.0 0.00 0.00 0.00 79 1010.5
20260831211708 86 186 0.0 0.0 0.00 0.00 0.00 78 1010.4
20260831210936 86 186 0.0 0.0 0.00 0.00 0.00 78 1010.4
20260831210430 86 186 0.0 0.0 0.00 0.00 0.00 77 1010.4
20260831205925 86 186 0.0 0.0 0.00 0.00 0.00 79 1010.1
20260831205419 86 186 0.0 0.0 0.00 0.00 0.00 77 1010.1
20260831204913 86 186 0.0 0.0 0.00 0.00 0.00 78 1010.0
20260831204406 86 186 0.0 0.0 0.00 0.00 0.00 78 1010.1
20260831203900 86 186 0.0 0.0 0.00 0.00 0.00 76 1009.9
20260831203356 85 186 0.0 0.0 0.00 0.00 0.00 76 1009.8
20260831202849 86 186 0.0 0.0 0.00 0.00 0.00 77 1009.6
20260831202605 85 186 0.0 0.0 0.00 0.00 0.00 77 1009.7
20260831201836 85 186 0.0 0.0 0.00 0.00 0.00 77 1010.0
20260831201554 85 186 0.0 0.0 0.00 0.00 0.00 80 1009.9
20260831201046 86 186 0.0 0.0 0.00 0.00 0.00 78 1009.8
20260831200319 86 186 0.0 0.0 0.00 0.00 0.00 78 1009.9
20260831195814 86 186 0.0 0.0 0.00 0.00 0.00 78 1009.9
20260831195307 87 186 0.0 0.0 0.00 0.00 0.00 76 1010.1
20260831194800 87 186 0.0 0.0 0.00 0.00 0.00 76 1010.0
20260831194255 87 186 0.0 0.0 0.00 0.00 0.00 75 1010.3
20260831193749 87 186 0.0 0.0 0.00 0.00 0.00 74 1010.3
20260831193243 87 186 0.0 0.0 0.00 0.00 0.00 74 1010.0
20260831192737 87 186 0.0 0.0 0.00 0.00 0.00 73 1009.9
20260831192230 88 186 0.0 0.0 0.00 0.00 0.00 72 1009.7
20260831191725 88 186 0.0 0.0 0.00 0.00 0.00 71 1009.8
20260831191218 88 186 0.0 0.0 0.00 0.00 0.00 72 1009.7
20260831190713 88 186 0.0 0.0 0.00 0.00 0.00 71 1009.8
20260831190207 89 186 0.0 0.0 0.00 0.00 0.00 69 1010.0
20260831190147 89 186 0.0 0.0 0.00 0.00 0.00 71 1009.9
20260831185155 89 186 0.0 0.0 0.00 0.00 0.00 70 1010.0
20260831184649 89 186 0.0 1.0 0.00 0.00 0.00 69 1010.0
20260831184142 89 175 1.0 3.0 0.00 0.00 0.00 70 1010.0
20260831183637 89 175 1.0 4.0 0.00 0.00 0.00 69 1010.0
20260831183130 89 174 1.0 4.0 0.00 0.00 0.00 70 1010.0
20260831182625 88 234 0.0 0.0 0.00 0.00 0.00 72 1010.0
20260831182342 88 9 0.0 0.0 0.00 0.00 0.00 72 1010.1
20260831181613 87 259 0.0 0.0 0.00 0.00 0.00 75 1010.4
20260831181106 85 259 0.0 0.0 0.00 0.00 0.00 76 1010.1
20260831180601 86 259 0.0 0.0 0.00 0.00 0.00 75 1010.3
20260831180054 87 205 0.0 0.0 0.00 0.00 0.00 72 1010.4
20260831175549 87 181 0.0 0.0 0.00 0.00 0.00 70 1010.4
20260831175044 87 323 0.0 3.0 0.00 0.00 0.00 72 1010.5
20260831174537 86 20 0.0 3.0 0.00 0.00 0.00 73 1010.6
20260831174031 85 321 1.0 4.0 0.00 0.00 0.00 74 1010.7
20260831173524 85 301 1.0 4.0 0.00 0.00 0.00 73 1010.8
20260831173019 86 280 2.0 4.0 0.00 0.00 0.00 72 1010.8
20260831172513 87 229 1.0 4.0 0.00 0.00 0.00 73 1011.0
20260831172006 85 248 2.0 6.0 0.00 0.00 0.00 74 1010.9
20260831171500 86 217 3.0 7.0 0.00 0.00 0.00 69 1010.9
20260831170955 88 202 3.0 7.0 0.00 0.00 0.00 67 1010.8
20260831170710 87 251 1.0 7.0 0.00 0.00 0.00 71 1010.7
20260831165942 86 230 0.0 0.0 0.00 0.00 0.00 71 1010.8
20260831165703 86 209 1.0 3.0 0.00 0.00 0.00 74 1010.8
20260831164936 85 202 2.0 5.0 0.00 0.00 0.00 72 1010.8
20260831164436 85 202 2.0 5.0 0.00 0.00 0.00 74 1010.7
20260831163936 85 224 2.0 5.0 0.00 0.00 0.00 73 1010.7
20260831163437 84 222 1.0 5.0 0.00 0.00 0.00 74 1010.7
20260831162936 83 231 0.0 1.0 0.00 0.00 0.00 76 1010.7
20260831162435 82 231 0.0 1.0 0.00 0.00 0.00 78 1010.7
20260831161935 81 231 0.0 3.0 0.00 0.00 0.00 77 1010.6
20260831161435 81 231 0.0 3.0 0.00 0.00 0.00 78 1010.7
20260831160934 81 278 0.0 2.0 0.00 0.00 0.00 78 1010.6
20260831160653 81 278 1.0 3.0 0.00 0.00 0.00 78 1010.6
20260831155932 81 275 1.0 3.0 0.00 0.00 0.00 78 1010.5
20260831155433 81 223 1.0 2.0 0.00 0.00 0.00 78 1010.6
20260831154933 80 223 1.0 3.0 0.00 0.00 0.00 78 1010.5
20260831154433 80 223 1.0 3.0 0.00 0.00 0.00 79 1010.5
20260831154410 80 215 1.0 4.0 0.00 0.00 0.00 79 1010.4
20260831153429 80 177 1.0 4.0 0.00 0.00 0.00 79 1010.3
20260831152929 80 170 1.0 4.0 0.00 0.00 0.00 79 1010.4
20260831152648 79 228 1.0 3.0 0.00 0.00 0.00 80 1010.4
20260831151929 79 229 2.0 4.0 0.00 0.00 0.00 80 1010.5
20260831151428 79 229 2.0 4.0 0.00 0.00 0.00 80 1010.3
20260831150929 79 248 1.0 3.0 0.00 0.00 0.00 80 1010.3
20260831150429 78 222 2.0 3.0 0.00 0.00 0.00 81 1010.1
20260831145929 78 224 1.0 3.0 0.00 0.00 0.00 81 1010.1
20260831145429 78 309 1.0 3.0 0.00 0.00 0.00 82 1010.1
20260831144928 78 309 1.0 3.0 0.00 0.00 0.00 82 1010.1
20260831144428 78 247 1.0 3.0 0.00 0.00 0.00 82 1010.4
20260831144156 77 242 0.0 0.0 0.00 0.00 0.00 82 1010.0
20260831143646 77 188 0.0 1.0 0.00 0.00 0.00 83 1009.8
20260831142928 77 188 0.0 2.0 0.00 0.00 0.00 83 1009.8
20260831142428 77 186 1.0 2.0 0.00 0.00 0.00 83 1009.7
20260831141929 76 186 1.0 3.0 0.00 0.00 0.00 83 1009.7
20260831141426 76 186 2.0 4.0 0.00 0.00 0.00 83 1009.6
20260831140919 76 185 2.0 4.0 0.00 0.00 0.00 84 1009.5
20260831140413 76 191 2.0 5.0 0.00 0.00 0.00 85 1009.5
20260831135907 75 228 2.0 5.0 0.00 0.00 0.00 85 1009.6
20260831135401 75 173 2.0 5.0 0.00 0.00 0.00 85 1009.6
20260831134856 75 175 3.0 9.0 0.00 0.00 0.00 86 1009.5
20260831134350 75 171 2.0 9.0 0.00 0.00 0.00 87 1009.4
20260831133843 74 91 2.0 3.0 0.00 0.00 0.00 87 1009.4
20260831133559 74 103 2.0 4.0 0.00 0.00 0.00 87 1009.3
20260831133057 74 104 2.0 4.0 0.00 0.00 0.00 88 1009.3
20260831132326 73 104 1.0 3.0 0.00 0.00 0.00 88 1009.2
20260831131819 73 105 1.0 3.0 0.00 0.00 0.00 88 1009.3
20260831131531 73 104 1.0 4.0 0.00 0.00 0.00 89 1009.2
20260831130808 72 125 2.0 4.0 0.00 0.00 0.00 89 1009.2
20260831130301 72 91 2.0 3.0 0.00 0.00 0.00 89 1009.1
20260831125756 71 91 1.0 3.0 0.00 0.00 0.00 90 1009.2
20260831125249 71 91 1.0 3.0 0.00 0.00 0.00 90 1009.2
20260831124744 71 91 1.0 3.0 0.00 0.00 0.00 89 1009.3
20260831124238 71 91 2.0 3.0 0.00 0.00 0.00 89 1009.3
20260831123732 71 91 2.0 3.0 0.00 0.00 0.00 89 1009.2
20260831123226 71 91 2.0 4.0 0.00 0.00 0.00 89 1009.2
20260831122720 71 91 1.0 4.0 0.00 0.00 0.00 89 1009.1
20260831122213 70 91 0.0 0.0 0.00 0.00 0.00 89 1009.1
20260831121708 70 91 0.0 0.0 0.00 0.00 0.00 89 1009.0
20260831121201 70 91 0.0 0.0 0.00 0.00 0.00 88 1008.9
20260831120656 70 91 0.0 0.0 0.00 0.00 0.00 88 1009.2
20260831120150 70 91 0.0 0.0 0.00 0.00 0.00 88 1009.0
20260831115644 70 91 0.0 0.0 0.00 0.00 0.00 88 1008.9
20260831115138 70 91 1.0 3.0 0.00 0.00 0.00 88 1008.9
20260831114631 70 91 2.0 4.0 0.00 0.00 0.00 88 1008.8
20260831114126 70 91 2.0 4.0 0.00 0.00 0.00 88 1008.8
20260831113619 70 91 1.0 4.0 0.00 0.00 0.00 87 1008.8
20260831113114 70 91 1.0 3.0 0.00 0.00 0.00 87 1008.9
20260831112829 70 91 0.0 3.0 0.00 0.00 0.00 87 1008.9
20260831112101 70 91 0.0 0.0 0.00 0.00 0.00 87 1009.0
20260831111819 71 91 0.0 0.0 0.00 0.00 0.00 87 1009.0
20260831111306 71 91 0.0 0.0 0.00 0.00 0.00 87 1008.9
20260831110804 71 91 0.0 0.0 0.00 0.00 0.00 87 1008.8
20260831110038 71 91 0.0 0.0 0.00 0.00 0.00 86 1009.1
20260831105531 71 91 0.0 1.0 0.00 0.00 0.00 86 1008.9
20260831105500 71 91 0.0 3.0 0.00 0.00 0.00 86 1008.9
20260831104737 71 91 0.0 3.0 0.00 0.00 0.00 86 1008.8
20260831104014 71 91 0.0 2.0 0.00 0.00 0.00 86 1008.7
20260831103507 71 91 1.0 3.0 0.00 0.00 0.00 86 1008.8
20260831103002 71 91 1.0 3.0 0.00 0.00 0.00 86 1008.8
20260831102455 71 91 1.0 3.0 0.00 0.00 0.00 86 1008.7
20260831101950 71 91 0.0 2.0 0.00 0.00 0.00 86 1008.8
20260831101443 72 91 1.0 4.0 0.00 0.00 0.00 86 1008.9
20260831100938 72 91 2.0 6.0 0.00 0.00 0.00 86 1008.8
20260831100431 72 91 1.0 6.0 0.00 0.00 0.00 86 1008.9
20260831095925 72 65 1.0 2.0 0.00 0.00 0.00 85 1009.0
20260831095419 72 65 1.0 4.0 0.00 0.00 0.00 85 1008.9
20260831094913 72 65 1.0 4.0 0.00 0.00 0.00 85 1009.0
20260831094408 72 116 0.0 0.0 0.00 0.00 0.00 85 1008.9
20260831093901 73 116 0.0 0.0 0.00 0.00 0.00 85 1008.8
20260831093356 73 116 0.0 0.0 0.00 0.00 0.00 85 1009.0
20260831092849 73 118 0.0 0.0 0.00 0.00 0.00 85 1009.0
20260831092343 73 118 0.0 0.0 0.00 0.00 0.00 85 1008.9
20260831091838 73 118 0.0 0.0 0.00 0.00 0.00 85 1008.9
20260831091332 73 118 1.0 9.0 0.00 0.00 0.00 85 1008.9
20260831090826 73 119 2.0 9.0 0.00 0.00 0.00 85 1008.9
20260831090320 73 92 1.0 3.0 0.00 0.00 0.00 85 1008.9
20260831085813 73 92 2.0 5.0 0.00 0.00 0.00 85 1009.0
20260831085308 73 93 3.0 6.0 0.00 0.00 0.00 85 1009.0
20260831084803 73 81 3.0 6.0 0.00 0.00 0.00 85 1008.9
20260831084256 73 79 3.0 6.0 0.00 0.00 0.00 85 1008.9
20260831083749 73 84 3.0 6.0 0.00 0.00 0.00 85 1008.9
20260831083243 73 80 3.0 7.0 0.00 0.00 0.00 85 1009.0
20260831082737 73 84 3.0 7.0 0.00 0.00 0.00 85 1009.0
20260831082720 73 91 4.0 7.0 0.00 0.00 0.00 84 1009.0
20260831081725 73 88 3.0 7.0 0.00 0.00 0.00 84 1009.0
20260831081225 73 88 3.0 7.0 0.00 0.00 0.00 84 1009.0
20260831081207 73 94 4.0 8.0 0.00 0.00 0.00 84 1009.0
20260831080226 73 90 4.0 8.0 0.00 0.00 0.00 84 1009.0
20260831075725 73 87 3.0 8.0 0.00 0.00 0.00 84 1009.5
20260831075226 73 103 3.0 8.0 0.00 0.00 0.00 84 1009.1
20260831074947 73 100 3.0 8.0 0.00 0.00 0.00 84 1009.1
20260831074448 73 98 3.0 7.0 0.00 0.00 0.00 84 1009.2
20260831073724 73 92 3.0 7.0 0.00 0.00 0.00 83 1009.2
20260831073221 73 81 2.0 6.0 0.00 0.00 0.00 83 1009.2
20260831072940 74 91 2.0 4.0 0.00 0.00 0.00 83 1009.2
20260831072221 74 92 1.0 5.0 0.00 0.00 0.00 83 1009.2
20260831071723 74 146 1.0 5.0 0.00 0.00 0.00 82 1009.2
20260831071221 74 96 1.0 3.0 0.00 0.00 0.00 82 1009.3
20260831070947 74 168 2.0 4.0 0.00 0.00 0.00 82 1009.3
20260831070217 74 175 2.0 4.0 0.00 0.00 0.00 82 1009.5
20260831065718 74 167 1.0 6.0 0.00 0.00 0.00 82 1009.4
20260831065448 74 168 1.0 6.0 0.00 0.00 0.00 82 1009.5
20260831064717 74 112 2.0 4.0 0.00 0.00 0.00 82 1009.5
20260831064217 74 159 2.0 4.0 0.00 0.00 0.00 82 1009.6
20260831063717 74 83 1.0 3.0 0.00 0.00 0.00 82 1009.5
20260831063435 74 79 1.0 3.0 0.00 0.00 0.00 82 1009.6
20260831062717 74 79 1.0 4.0 0.00 0.00 0.00 82 1009.6
20260831062218 74 79 2.0 6.0 0.00 0.00 0.00 81 1009.7
20260831061714 74 79 3.0 6.0 0.00 0.00 0.00 81 1009.6
20260831061214 74 96 3.0 6.0 0.00 0.00 0.00 81 1009.7
20260831060716 74 88 3.0 6.0 0.00 0.00 0.00 81 1009.7
20260831060215 75 88 3.0 6.0 0.00 0.00 0.00 81 1009.8
20260831055713 74 90 2.0 4.0 0.00 0.00 0.00 81 1009.9
20260831055213 75 89 2.0 4.0 0.00 0.00 0.00 81 1010.0
20260831054934 75 89 3.0 4.0 0.00 0.00 0.00 81 1010.0
20260831054213 75 95 2.0 4.0 0.00 0.00 0.00 81 1010.0
20260831053714 75 95 2.0 4.0 0.00 0.00 0.00 81 1010.3
20260831053206 75 94 3.0 6.0 0.00 0.00 0.00 81 1010.3
20260831052702 75 88 2.0 6.0 0.00 0.00 0.00 81 1010.1
20260831052155 75 108 2.0 6.0 0.00 0.00 0.00 81 1010.3
20260831051915 75 108 2.0 6.0 0.00 0.00 0.00 81 1010.4
20260831051143 74 86 2.0 4.0 0.00 0.00 0.00 81 1010.4
20260831050637 74 86 2.0 4.0 0.00 0.00 0.00 81 1010.4
20260831050352 74 84 2.0 4.0 0.00 0.00 0.00 81 1010.5
20260831045849 74 120 2.0 7.0 0.00 0.00 0.00 81 1010.5
20260831045120 74 88 2.0 7.0 0.00 0.00 0.00 82 1010.5
20260831044613 74 96 1.0 6.0 0.00 0.00 0.00 82 1010.5
20260831044107 74 94 1.0 4.0 0.00 0.00 0.00 82 1010.5
20260831043602 74 94 2.0 4.0 0.00 0.00 0.00 82 1010.5
20260831043055 74 85 2.0 4.0 0.00 0.00 0.00 82 1010.5
20260831042550 74 85 1.0 4.0 0.00 0.00 0.00 82 1010.5
20260831042044 74 81 1.0 5.0 0.00 0.00 0.00 82 1010.5
20260831041538 74 79 2.0 5.0 0.00 0.00 0.00 82 1010.4
20260831041032 74 90 3.0 7.0 0.00 0.00 0.00 82 1010.4
20260831040747 74 76 3.0 7.0 0.00 0.00 0.00 82 1010.5
20260831040020 74 71 2.0 5.0 0.00 0.00 0.00 82 1010.5
20260831035514 75 88 3.0 7.0 0.00 0.00 0.00 82 1010.6
20260831035007 75 78 2.0 7.0 0.00 0.00 0.00 82 1010.6
20260831034721 75 76 2.0 6.0 0.00 0.00 0.00 82 1010.6
20260831033956 75 84 3.0 6.0 0.00 0.00 0.00 82 1010.8
20260831033715 75 84 2.0 6.0 0.00 0.00 0.00 82 1010.8
20260831032956 75 85 1.0 4.0 0.00 0.00 0.00 82 1010.8
20260831032457 75 76 1.0 4.0 0.00 0.00 0.00 81 1010.9
20260831031956 75 66 1.0 4.0 0.00 0.00 0.00 81 1011.0
20260831031456 75 88 2.0 3.0 0.00 0.00 0.00 81 1010.9
20260831030956 75 84 2.0 6.0 0.00 0.00 0.00 81 1010.9
20260831030717 75 85 2.0 6.0 0.00 0.00 0.00 81 1010.9
20260831025956 75 89 3.0 8.0 0.00 0.00 0.00 81 1011.0
20260831025718 75 89 3.0 8.0 0.00 0.00 0.00 81 1011.0
20260831024956 75 89 2.0 7.0 0.00 0.00 0.00 81 1011.2
20260831024715 75 143 1.0 7.0 0.00 0.00 0.00 81 1011.3
20260831023956 75 107 0.0 3.0 0.00 0.00 0.00 81 1011.3
20260831023452 75 118 1.0 4.0 0.00 0.00 0.00 81 1011.4
20260831022952 75 171 2.0 4.0 0.00 0.00 0.00 81 1011.5
20260831022452 75 101 2.0 6.0 0.00 0.00 0.00 82 1011.3
20260831021951 76 109 2.0 7.0 0.00 0.00 0.00 82 1011.4
20260831021451 76 114 1.0 7.0 0.00 0.00 0.00 81 1011.5
20260831020952 76 126 1.0 4.0 0.00 0.00 0.00 81 1011.6
20260831020452 76 86 1.0 3.0 0.00 0.00 0.00 81 1011.7
20260831015951 76 109 1.0 3.0 0.00 0.00 0.00 80 1011.6
20260831015451 77 141 1.0 5.0 0.00 0.00 0.00 78 1011.5
20260831014951 77 141 0.0 5.0 0.00 0.00 0.00 78 1011.6
20260831014452 77 164 1.0 4.0 0.00 0.00 0.00 77 1011.5
20260831014213 77 164 1.0 4.0 0.00 0.00 0.00 77 1011.4
20260831013451 77 163 2.0 5.0 0.00 0.00 0.00 77 1011.3
20260831012952 77 169 4.0 8.0 0.00 0.00 0.00 76 1011.2
20260831012452 77 161 5.0 11.0 0.00 0.00 0.00 77 1011.3
20260831011952 77 177 4.0 11.0 0.00 0.00 0.00 77 1011.3
20260831011451 77 183 3.0 10.0 0.00 0.00 0.00 78 1011.3
20260831010950 77 199 3.0 6.0 0.00 0.00 0.00 77 1011.2
20260831010445 77 217 3.0 6.0 0.00 0.00 0.00 78 1010.9
20260831005938 78 212 3.0 6.0 0.00 0.00 0.00 78 1011.1
20260831005433 78 222 2.0 5.0 0.00 0.00 0.00 80 1010.9
20260831004926 78 170 0.0 5.0 0.00 0.00 0.00 82 1010.9
20260831004421 78 174 0.0 0.0 0.00 0.00 0.00 82 1010.8
20260831003914 78 109 0.0 1.0 0.00 0.00 0.00 82 1010.8
20260831003633 78 96 0.0 2.0 0.00 0.00 0.00 81 1010.7
20260831002904 79 95 0.0 2.0 0.00 0.00 0.00 81 1010.7
20260831002356 79 95 0.0 1.0 0.00 0.00 0.00 81 1010.5
20260831002108 79 95 0.0 4.0 0.00 0.00 0.00 80 1010.4
20260831001345 79 95 0.0 4.0 0.00 0.00 0.00 80 1010.5
20260831000838 80 92 0.0 0.0 0.00 0.00 0.00 79 1010.4
20260831000333 80 115 1.0 3.0 0.00 0.00 0.00 78 1010.5
20260830235826 80 115 1.0 3.0 0.00 0.00 0.00 78 1010.5
20260830235320 81 115 0.0 2.0 0.00 0.00 0.00 77 1010.3
20260830235228 81 167 0.0 1.0 0.00 0.00 0.00 76 1010.3
20260830235221 81 167 0.0 1.0 0.00 0.00 0.00 75 1010.3
20260830234031 81 167 1.0 5.0 0.00 0.00 0.00 75 1010.1
20260830233256 82 167 2.0 8.0 0.00 0.00 0.00 74 1010.0